Regional Weather Roundup
Issued by NWS

Home | Current Version | Previous Version | Graphics & Text | Print | Product List | Glossary On
Versions: 1 2 3 4 5 6 7 8 9 10 11 12 13 14 15 16 17 18 19 20 21 22 23 24 25 26 27 28 29 30 31 32 33 34 35 36 37 38 39 40 41 42 43 44 45 46 47 48 49 50
000
ASUS43 KMPX 101410
RWRMN
WEATHER ROUNDUP FOR MINNESOTA
NATIONAL WEATHER SERVICE TWIN CITIES/CHANHASSEN MN
900 AM CDT THU JUL 10 2014


NOTE: "FAIR" INDICATES FEW OR NO CLOUDS BELOW 12,000 FEET WITH NO
SIGNIFICANT WEATHER AND/OR OBSTRUCTIONS TO VISIBILITY. N/A MEANS
CURRENT SKY AND/OR WEATHER CONDITIONS ARE NOT AVAILABLE.

MNZ060>063-068>070-101500-
   Twin Cities Metro

CITY           SKY/WX    TMP DP  RH WIND       PRES   REMARKS
TWIN CITIES    MOSUNNY   67  59  75 E6        30.06S
ST PAUL        SUNNY     68  59  73 S8        30.07R
CRYSTAL        MOSUNNY   71  58  63 SE7       30.04S
BLAINE         MOSUNNY   70  63  78 SE6       30.06S
LAKEVILLE      MOSUNNY   66  61  82 SE3       30.06F
EDEN PRAIRIE   MOSUNNY   69  59  70 SE6       30.05S
SOUTH ST PAUL  SUNNY     67  58  74 SE3       30.07S
LAKE ELMO      FAIR      68  61  77 S5        30.08S
$$
MNZ001>005-007-008-013>017-022>024-027-028-101500-
   Northwest Minnesota

CITY           SKY/WX    TMP DP  RH WIND       PRES   REMARKS
BEMIDJI        SUNNY     65  56  71 S5        30.02S
HALLOCK        SUNNY     66  55  68 S14       29.93F
ROSEAU         SUNNY     66  57  72 S8        29.97S
WARROAD        SUNNY     66  57  72 S5        29.98S
THIEF RVR FALL SUNNY     66  55  68 S9        29.99R
CROOKSTON      SUNNY     66  55  68 S12       29.98R
FOSSTON        SUNNY     66  52  59 S10       30.01S
DETROIT LAKES  SUNNY     68  55  64 S8        30.03R
MOORHEAD       SUNNY     66  57  72 SE8       29.99R
PARK RAPIDS    SUNNY     66  55  67 S6        30.03S
$$
MNZ006-009>011-018-025>026-101500-
   North Central Minnesota

CITY           SKY/WX    TMP DP  RH WIND       PRES   REMARKS
BAUDETTE       SUNNY     67  56  67 S6        30.00S
FLAG ISLAND    SUNNY     66  57  72 S8        29.96S
INTL FALLS     SUNNY     66  54  65 S6        30.01F
WASKISH        SUNNY     66  55  68 S2        30.00F
LONGVILLE      SUNNY     63  61  94 S5        30.03S
GRAND RAPIDS   SUNNY     64  55  72 S7        30.04F
CRANE LAKE     SUNNY     63  55  77 SE5       30.06S
ORR            SUNNY     64  54  68 S6        30.02S
COOK           SUNNY     66  55  68 S6        30.05S
$$
MNZ012-019>021-037-101500-
   Northeast Minnesota

CITY           SKY/WX    TMP DP  RH WIND       PRES   REMARKS
DULUTH         SUNNY     66  55  67 S7        30.07S
ELY            MOSUNNY   64  54  68 SW7       30.06F
HIBBING        SUNNY     64  54  69 VRB3      30.05F
EVELETH        MOSUNNY   63  54  72 CALM      30.06F
DULUTH HARBOR  SUNNY     57  54  88 NE5       30.08S
TWO HARBORS    SUNNY     63  54  72 CALM      30.06F
SILVER BAY     SUNNY     63  57  82 SW3       30.07S
GRAND MARAIS     N/A     50  45  83 CALM      30.09S
G MARAIS ARPRT CLOUDY    61  48  63 SW5       30.11S
$$
MNZ029>031-032-039>041-046>048-054>057-064-101500-
   West Central Minnesota

CITY           SKY/WX    TMP DP  RH WIND       PRES   REMARKS
FERGUS FALLS   SUNNY     70  52  52 S9        30.01R
WHEATON        SUNNY     66  55  68 SE12      30.01S
MORRIS         SUNNY     68  57  68 SE9       30.00S
ALEXANDRIA     SUNNY     68  54  60 SE10      30.04S
ELBOW LAKE     FAIR      68  55  64 SE12      30.01S
WADENA         SUNNY     66  55  68 SE5       30.03S
GLENWOOD       SUNNY     68  57  68 SE8       30.04R
APPLETON       SUNNY     70  57  64 SE8       30.00S
BENSON         SUNNY     70  57  64 S7        30.01S
ORTONVILLE     SUNNY     66  55  68 SE8       29.99F
MADISON        SUNNY     70  61  73 SE5       30.00S
WILLMAR        FAIR      72  55  56 SE8       30.04S
$$
MNZ033>034-036-042>043-049>051-058-059-101500-
   Central Minnesota

CITY           SKY/WX    TMP DP  RH WIND       PRES   REMARKS
ST CLOUD       MOSUNNY   69  59  70 SE5       30.04S
SAUK CENTRE    FAIR      67  57  69 SE6       30.04S
PAYNESVILLE    SUNNY     65  57  74 E7        30.05R
AITKIN           N/A     72  61  68 S6        30.03R HAZE
PINE RIVER       N/A     64  57  77 SW5       30.07S
BRAINERD       SUNNY     71  57  61 S3        30.05R
STAPLES        SUNNY     66  55  68 S3        30.04R
LONG PRAIRIE   FAIR      66  55  68 SE7       30.05R
LITTLE FALLS   SUNNY     66  54  63 CALM      30.04S
LITCHFIELD     MOSUNNY   72  61  68 SE5       30.04S
BUFFALO        SUNNY     69  58  69 CALM      30.06S
MAPLE LAKE     SUNNY     71  63  76 CALM      30.06R
$$
MNZ037-044-045-052-053-101500-
   East Central Minnesota

CITY           SKY/WX    TMP DP  RH WIND       PRES   REMARKS
PRINCETON      SUNNY     72  61  68 SE3       30.05S
MORA           SUNNY     64  57  77 CALM      30.07S
CAMBRIDGE      SUNNY     70  57  64 S6        30.04S
RUSH CITY      SUNNY     67  59  75 SE5       30.06S
MOOSE LAKE     SUNNY     66  57  72 S5        30.04S
HINCKLEY       FAIR      66  59  77 S7        30.06S
CLOQUET        SUNNY     66  55  68 S7        30.06S
MCGREGOR       SUNNY     66  59  77 S3        30.05S
$$
MNZ071>073-080-081-089-090-097-098-101500-
   Southwest Minnesota

CITY           SKY/WX    TMP DP  RH WIND       PRES   REMARKS
MONTEVIDEO     SUNNY     72  59  64 S6        30.02R
GRANITE FALLS  SUNNY     68  58  70 SE6       30.04R
CANBY          SUNNY     67  61  80 SE3       30.02S
MARSHALL       SUNNY     70  61  73 MISG      30.02R
REDWOOD FALLS  SUNNY     70  60  70 S9        30.03R
OLIVIA         SUNNY     70  57  64 SE6       30.02S
PIPESTONE      SUNNY     70  61  73 S10       30.03S
WINDOM         SUNNY     72  63  73 S5        30.05S
WORTHINGTON    SUNNY     70  63  78 S17       30.07R
JACKSON        SUNNY     70  61  73 S7        30.07R
TRACY          SUNNY     72  61  69 SW9       30.03R
SLAYTON        SUNNY     70  61  71 CALM      30.05R
$$
MNZ065>067-074>077-082>085-091>093-101500-
   South Central Minnesota

CITY           SKY/WX    TMP DP  RH WIND       PRES   REMARKS
MANKATO        SUNNY     68  57  68 S7        30.06S
NEW ULM        SUNNY     66  63  88 S6        30.05R
ST JAMES       SUNNY     72  63  73 S5        30.06S
FAIRMONT       SUNNY     72  61  68 S9        30.07R
GLENCOE        SUNNY     71  58  63 S3        30.04S
FARIBAULT      SUNNY     73  57  56 S6        30.07S
OWATONNA       SUNNY     70  61  73 S7        30.07F
WASECA         MOSUNNY   68  59  73 S7        30.09S
ALBERT LEA     SUNNY     70  63  78 SW5       30.08S
$$
MNZ078>079-086>088-094>096-101500-
   Southeast Minnesota

CITY           SKY/WX    TMP DP  RH WIND       PRES   REMARKS
ROCHESTER      SUNNY     68  62  81 S8        30.11R
RED WING       SUNNY     70  59  68 S7        30.07S
STANTON        MOSUNNY   69  60  72 CALM      30.06S
DODGE CENTER   MOSUNNY   68  63  83 S7        30.09S
WINONA         MOSUNNY   70  61  73 SE7       30.10S
AUSTIN         SUNNY     68  63  83 S7        30.09R
PRESTON        SUNNY     66  61  82 S7        30.12R
$$
ABBREVIATIONS USED IN REMARKS
   TC - TEMPERATURES IN CELSIUS
  WCI - WIND CHILL INDEX
   HX - HEAT INDEX
  VSB - VISIBILITY
$$



USA.gov is the U.S. government's official web portal to all federal, state and local government web resources and services.